Location: Ettringen
(48.1054°N, 10.6545°E)
Time: 21:11:14
(UTC+00:00)

MOS 1 Rocket - Pass Details

Date: 18 November 2025
Orbit: 610 x 813 km, 97.4° (Epoch: 05 December)

Event Time Altitude Azimuth Distance (km) Brightness Sun altitude
Rises 17:38:32 0° 181° (S) 2,874 6.6 -20.2°
Reaches altitude 10° 17:40:44 10° 188° (S) 1,987 5.8 -20.6°
Maximum altitude 17:44:54 47° 262° (W) 852 4.2 -21.3°
Drops below altitude 10° 17:49:16 10° 337° (NNW) 2,088 6.0 -22.0°
Sets 17:51:38 0° 343° (NNW) 3,038 6.8 -22.4°
